Location: Byszew
(52.1813°N, 19.2693°E)
Time: 02:27:47
(UTC+00:00)

Cosmos 1844 - Pass Details

Date: 17 June 2021
Orbit: 823 x 867 km, 70.9° (Epoch: 03 August)

Event Time Altitude Azimuth Distance (km) Brightness Sun altitude
Rises 21:04:57 0° 323° (NW) 3,372 8.6 -11.4°
Reaches altitude 10° 21:07:36 10° 314° (NW) 2,436 7.3 -11.5°
Maximum altitude 21:12:27 31° 254° (WSW) 1,407 4.9 -11.8°
Enters shadow 21:17:12 11° 194° (SSW) 2,402 5.6 -12.1°
